DECAYED

STARLINK-1671, 46554 (Decayed)

Orbit data source: Space-Track

STARLINK-1671, 46554 was a payload satellite owned by SpaceX/Seattle (US) in LEO that was launched on Tue, 06 Oct 2020 UTC via an FALCON 9 launch vehicle from the Air Force Eastern Test Range (AFETR). Payload-class satellites include a variety of spacecraft equipped with specific instruments for various scientific and technological missions. These include communications satellites like Starlink; space stations such as the ISS; scientific satellites like the Hubble; Earth observation satellites from companies like Planet Labs, Umbra, and HawkEye 360; GPS; miniature CubeSats for education and research; and military/defense satellites.

Not visible in the next 10 days
Identifier
46554, 2020-070Y
Orbit
Decayed
Country
Flag of USUS
Related business
Manufacturer
SpaceX/Seattle
Mission
Decayed Commercial Communications
Bus & Motor
STARLINK, Unknown motor
Mass
260 kg wet, ~248 kg dry
Launch date (UTC)
2020-10-06 (5 years ago)
Launch vehicle
FALCON 9
Launch site
Air Force Eastern Test Range (AFETR)
Object type
Payload
Rocket body
Debris
Shape & HBR
Box + 1 Pan, 10.1 m
Radar Cross Section
13.562 m², Large (>1 m²)

Expand to show TLE details & history
Last TLE update: 8 months ago

TLE from 8 months ago
0 STARLINK-1671
1 46554U 20070Y   25051.97662829  .25461562  12430-4  51823-3 0  9992
2 46554  53.0141   6.2732 0007991 213.4312 224.9404 16.46467522243155
Epoch: 2025-02-20T23:26Z
TLE epoch observation values (Epoch: 2025-02-20T23:26:20.684Z)
Latitude
51.62074°
Longitude
-65.46268°
Altitude
158.468 km
Speed
7.815 km/s
True Right ascension
05h 09m 04s
True Declination
51° 26' 16"
Sunlit
Object was in full shadow at epoch
Visualization orbit readout
Latitude
Unknown
Longitude
Unknown
Altitude
Unknown
Speed
Unknown
Apparent Right ascension
Unknown
Apparent Declination
Unknown
Sunlit
N/A
Visualization observer readout
Local Sidereal Time
09:41:33
Azimuth
Unknown
Elevation
Unknown
Doppler factor
Unknown
Orbital elements
Apogee altitude
154.164 km
Perigee altitude
143.732 km
Semi-major axis
6,527.085 km
Eccentricity
0.0008
Inclination
53.0141°
RAAN
6.2732°
Arg. of periapsis
213.4312°
True anomaly
224.87576°
Mean anomaly
224.9404°
Eccentric anomaly
224.90808°
Mean motion
4.11589 °/min
Orbital period
87.47 mins
BSTAR
0.00051823
Loading maneuver chart data...
Computing Atmospheric mass density...

Documentation

Showing up to 5 results
|